Other Public Products
Issued by NWS Grand Forks, ND

Home | Current Version | Previous Version | Graphics & Text | Print | Product List | Glossary On
Versions: 1 2 3 4 5 6 7 8 9 10 11 12 13 14 15 16 17 18 19 20 21 22 23 24 25 26 27 28 29 30 31 32 33 34 35 36 37 38 39 40 41 42 43 44 45 46 47 48 49 50
000
FPUS83 KFGF 240031
OPUFGF
PRAIRIE TO PINES WEATHER ROUNDUP
NATIONAL WEATHER SERVICE EASTERN NORTH DAKOTA/GRAND FORKS ND
700 PM CDT THU OCT 23 2014

 **SATELLITE DATA USED TO AUGMENT SKY COVER AT AUTOMATED STATIONS**
 *****  WEATHER ACROSS EASTERN NORTH DAKOTA  *****

CITY           SKY/WX    TMP DP  RH WIND       PRES   REMARKS
GRAND FORKS    PTCLDY    55  37  50 SW6       29.78S
6HR MIN TEMP:  52; 6HR MAX TEMP:  71;

GRAND FORKS AF PTCLDY    51  39  61 S6        29.79R
GRAND CITY NWS   N/A     52 N/A N/A SW6         N/A
BUXTON           N/A     59  41  51 S9          N/A
DEVILS LAKE    CLOUDY    52  37  58 S3        29.76F
6HR MIN TEMP:  54; 6HR MAX TEMP:  66;

FARGO          CLEAR     59  39  47 S12       29.82S
6HR MIN TEMP:  59; 6HR MAX TEMP:  72;

WAHPETON ARPT  CLEAR     54  32  43 S8        29.87S
$$

 *****  WEATHER ACROSS CENTRAL AND WESTERN NORTH DAKOTA  *****

CITY           SKY/WX    TMP DP  RH WIND       PRES   REMARKS
JAMESTOWN      MOCLDY    57  37  47 S8        29.81S
6HR MIN TEMP:  57; 6HR MAX TEMP:  70;

BISMARCK       CLOUDY    61  31  32 S7        29.81S
6HR MIN TEMP:  61; 6HR MAX TEMP:  77;

MINOT          MOCLDY    58  34  40 S5        29.73F
6HR MIN TEMP:  58; 6HR MAX TEMP:  68;

MINOT AFB      MOCLDY    56  35  44 S5        29.72F
6HR MIN TEMP:  54; 6HR MAX TEMP:  69;

GARRISON         N/A     52  36  54 W8        29.76S
6HR MIN TEMP:  51; 6HR MAX TEMP:  70;

WILLISTON      CLOUDY    55  36  48 SW9       29.76R
6HR MIN TEMP:  55; 6HR MAX TEMP:  67;

DICKINSON      CLOUDY    56  33  42 W6        29.81R
6HR MIN TEMP:  56; 6HR MAX TEMP:  73;

HETTINGER      MOCLDY    53  28  38 SW8       29.87R
6HR MIN TEMP:  53; 6HR MAX TEMP:  72;

$$

 *****  OTHER OBSERVATIONS NORTHEAST NORTH DAKOTA  *****

CITY           SKY/WX    TMP DP  RH WIND       PRES   REMARKS
WALHALLA         N/A     55  37  50 S5        29.76S
LANGDON        FAIR      48  32  53 S9        29.77S
CAVALIER       FAIR      50  39  66 S5        29.77S
GRAFTON        FAIR      50  39  66 S5        29.78S
CANDO          FAIR      50  36  57 S8        29.76F
FORT TOTTEN      N/A     61  33  35 S6        29.95S
ROLLA          FAIR      54  32  43 SW8       29.76S
RUGBY          FAIR      55  36  47 S7        29.75S
 ***** THE ABOVE OBSERVATIONS ARE NON NWS ARE NOT QUALITY
        CONTROLLED AND MAY MIS-REPORT RAIN FOR SNOW...
$$

 *****  OTHER OBSERVATIONS SOUTHEAST NORTH DAKOTA *****

CITY           SKY/WX    TMP DP  RH WIND       PRES   REMARKS
COOPERSTOWN    NOT AVBL
VALLEY CITY    FAIR      55  37  50 SW12      29.83S
OAKES            N/A     57  45  62 S9        29.86R
GWINNER        CLEAR     54  43  66 S9        29.87R
SHEYENNE NWR     N/A     54  41  61 S7        29.95
BUFFALO        NOT AVBL
WYNDMERE         N/A     54  41  62 SW5         N/A
 ***** THE ABOVE OBSERVATIONS ARE NON NWS ARE NOT QUALITY
       CONTROLLED AND MAY MIS-REPORT RAIN FOR SNOW...
$$

  *****  WEATHER ACROSS NORTHERN MINNESOTA  *****

CITY           SKY/WX    TMP DP  RH WIND       PRES   REMARKS
FLAG ISLAND    PTCLDY    57  41  54 S5        29.79S
WARROAD        PTCLDY    54  43  66 S5        29.81S
ROSEAU         CLEAR     52  43  71 S7        29.81R HAZE
HALLOCK        CLEAR     52  37  58 S7        29.78R
THF RVR FALLS  CLEAR     54  39  58 SE7       29.82R
6HR MIN TEMP:  57; 6HR MAX TEMP:  66;

HALSTAD          N/A     54  34  46 S9          N/A
FOSSTON        CLEAR     54  39  58 SE7       29.85S
BAUDETTE       PTCLDY    54  37  52 S6        29.82R
6HR MIN TEMP:  52; 6HR MAX TEMP:  66;

WASKISH        MOCLDY    45  39  81 CALM      29.85R
CROOKSTON      CLEAR     52  41  66 S8        29.81R
$$
  *****  WEATHER ACROSS CENTRAL AND WEST MINNESOTA  *****

CITY           SKY/WX    TMP DP  RH WIND       PRES   REMARKS
BEMIDJI        PTCLDY    56  34  43 S5        29.86S
PARK RAPIDS    CLEAR     56  36  47 S6        29.88S
6HR MIN TEMP:  54; 6HR MAX TEMP:  68;

WADENA         CLEAR     52  41  66 S5        29.90R
DETROIT LAKES  CLEAR     54  41  62 S8        29.88S
MOORHEAD       CLEAR     61  30  31 S8        29.85R
FERGUS FALLS   CLEAR     55  36  47 S6        29.89R
ELBOW LAKE     FAIR      54  41  60 S8        29.89R
6HR MIN TEMP:  55; 6HR MAX TEMP:  69;

MORRIS MN      CLEAR     54  43  66 S6        29.90S
STAPLES        CLEAR     55  37  50 S3        29.91S
WHEATON        CLEAR     57  43  58 S9        29.91R
$$
  *****  WEATHER ELSEWHERE ACROSS MINNESOTA  *****

CITY           SKY/WX    TMP DP  RH WIND       PRES   REMARKS
DULUTH         PTCLDY    51  46  83 S6        29.94R
6HR MIN TEMP:  51; 6HR MAX TEMP:  57;

INTRNTL FALLS  PTCLDY    52  36  54 SW5       29.84S
6HR MIN TEMP:  51; 6HR MAX TEMP:  68;

ELY            CLEAR     48  45  87 S5        29.91S
CLOQUET        CLEAR     52  48  87 CALM      29.94S
BRAINERD       PTCLDY    52  38  58 CALM      29.92S
6HR MIN TEMP:  52; 6HR MAX TEMP:  67;

HIBBING        CLEAR     49  46  90 SE5       29.90S
6HR MIN TEMP:  49; 6HR MAX TEMP:  61;

ALEXANDRIA     CLEAR     55  42  61 S7        29.92S
6HR MIN TEMP:  55; 6HR MAX TEMP:  67;

SAINT CLOUD    CLEAR     57  41  55 S5        29.94R
6HR MIN TEMP:  57; 6HR MAX TEMP:  71;

MINNEAPOLIS    CLEAR     59  46  62 SE9       29.97R
6HR MIN TEMP:  59; 6HR MAX TEMP:  68;

$$

  *****  WEATHER ACROSS SOUTH DAKOTA  *****

CITY           SKY/WX    TMP DP  RH WIND       PRES   REMARKS
SIOUX FALLS    PTCLDY    59  46  62 S9        29.95R
6HR MIN TEMP:  59; 6HR MAX TEMP:  68;

BROOKINGS      NOT AVBL
WATERTOWN      CLEAR     56  45  66 S5        29.92R
6HR MIN TEMP:  54; 6HR MAX TEMP:  69;

HURON          MOCLDY    58  44  60 SE5       29.89R
6HR MIN TEMP:  58; 6HR MAX TEMP:  73;

SISSETON         N/A     55  41  59 SW6       29.88R
ABERDEEN       PTCLDY    51  43  74 SE7       29.87R
6HR MIN TEMP:  50; 6HR MAX TEMP:  72;

MITCHELL       PTCLDY    63  41  44 S6        29.90F
PIERRE         CLOUDY    55  37  50 CALM      29.85R
6HR MIN TEMP:  53; 6HR MAX TEMP:  71;

MOBRIDGE       CLOUDY    56  42  59 S3        29.84S
RAPID CITY     PTCLDY    54  36  50 N8        29.91R
6HR MIN TEMP:  53; 6HR MAX TEMP:  72;

$$

  *****  SOME WEATHER IN NEARBY STATES *****

CITY           SKY/WX    TMP DP  RH WIND       PRES   REMARKS
GLASGOW MT     MOCLDY    59  39  47 W3        29.76F
6HR MIN TEMP:  59; 6HR MAX TEMP:  68;

GREAT FALLS MT CLOUDY    59  36  42 SW14G21   29.79S
6HR MIN TEMP:  57; 6HR MAX TEMP:  62;

CHEYENNE WY    MOCLDY    61  33  35 SW12      30.13R
6HR MIN TEMP:  61; 6HR MAX TEMP:  71;

SCOTTSBLUFF NE CLEAR     63  33  32 SW7       29.99R
6HR MIN TEMP:  63; 6HR MAX TEMP:  77;

OMAHA NE       PTCLDY    67  48  50 S5        30.01S
6HR MIN TEMP:  64; 6HR MAX TEMP:  73;

DES MOINES IA  PTCLDY    62  51  67 SE7       30.02R
6HR MIN TEMP:  62; 6HR MAX TEMP:  73;

DAVENPORT IA   CLOUDY    57  47  69 S5        30.05R
6HR MIN TEMP:  57; 6HR MAX TEMP:  61;

CHICAGO IL     CLOUDY    54  42  64 S8        30.06S
6HR MIN TEMP:  53; 6HR MAX TEMP:  59;

EAU CLAIRE WI  CLOUDY    52  50  93 S3        30.01R
6HR MIN TEMP:  50; 6HR MAX TEMP:  52;

LA CROSSE WI   CLOUDY    50  48  93 SE6       30.02S FOG
6HR MIN TEMP:  50; 6HR MAX TEMP:  50; 6HR PCP: TRACE;

$$

  *****  SOME NATIONAL WEATHER *****

CITY           SKY/WX    TMP DP  RH WIND       PRES   REMARKS



USA.gov is the U.S. government's official web portal to all federal, state and local government web resources and services.